Погода в Павлодаре

Погода в Павлодаре : погода сейчас, прогноз погоды и архив. Всё, что Вы хотите узнать о погоде в Павлодаре!

Поиск расширенной информации на нашем сайте:

Полезная информация: http://vengriya-opt.com.ua/ купить нижнее белье оптом.
Эти новые рецепты закусок не оставят вас равнодушными

Другие новости

Новости СМИ2

Главная страница сайта

Новости сайта

03.07.2017

Напоминаем, что на нашем специализированном сайте Метеоцентр.Азия вы можете получить высокодетализированные автоматические прогнозы погоды по пунктам России, СНГ и мира в авиационном формате (включающие направление и скорость ветра, видимость, явления погоды, количество и форму облачности, нижнюю и верхнюю границу облачности).

Рекомендуем: Заливка фундамента в Калуге КСК строительство домов в Калуге.

Погода в Павлодаре - сегодня

Время (UTC), дата Ветер
(°,м/с) 
Видим.   Явления Облачность Т
(°С)
Тd
(°С)
f(%) Тe
(°С)
Pmin
(гПа)
dP
(гПа)
Po
(мм)
O2
(г/м3)
Тmin Tmax R s Состояние
почвы
12 18.10.17 160 (Ю) 20000 м  {ливн. осадки}  10/10 600 м кучево-дожд. 
[Cb cap]
+10 +5.7 75 +11  1009.3  0.5  746  289           
15 18.10.17 210 (ЮЗ) 10 км  слаб. ливневой дождь  10/10 600 м кучево-дожд. 
[Cb cap]
+9.2 +8 92 +9  1011.7  2.3  748  290    +11.5  0.5     
18 18.10.17 240 (ЮЗ) 10 км  слаб. ливневой дождь  10/10 600 м кучево-дожд. 
[Cb cap]
+7.8 +6.5 91 +8  1013  1.3  749  292    +11.5  0.5     
21 18.10.17 240 (ЮЗ) 20000 м  {ливн. осадки}  10/10 600 м кучево-дожд. 
[Cb cap]
+7.1 +4.8 85 +7  1013.1  1.2  749  293           
00 19.10.17 200 (Ю) 20000 м  {ливн. осадки}  4/3 600 м средняя 
[Sc diur, vesp|Ac trans]
+5.1 +3.4 89 +5  1014.1  -0.5  750  296           
03 19.10.17 150 (ЮВ) 20000 м    8/8 600 м средняя 
[Sc diur, vesp|Ac trans]
+4.9 +3.2 89 +6  1014.2  0.1  750  296         
06 19.10.17 210 (ЮЗ) 7{15}  20000 м    8/5 1000 м верхняя 
[Cu hum|Ci fib]
+11.2 +2.4 55 +10  1011.3  -2.6  748  289  +4       
09 19.10.17 200 (Ю) 6{16}  20000 м  в посл. час ливневой дождь  8/6 600 м кучево-дожд., средняя 
[Cb cap|Ac trans]
+11 +0.6 49 +10  1008.6  -2.7  746  289           
12 19.10.17 190 (Ю) 10 км  слаб. ливневой дождь  9/8 600 м кучево-дожд., средняя 
[Cb cap|Ac und]
+7.4 +4.2 80 +7  1007.2  -1.5  745  291           
15 19.10.17 210 (ЮЗ) 20000 м  {ливн. осадки}  10/10 600 м кучево-дожд. 
[Cb cap]
+6.2 +3.4 82 +6  1005  -2.2  743  292    +12.5  0.4     
18 19.10.17 210 (ЮЗ) 20000 м  {ливн. осадки}  10/10 600 м кучево-дожд. 
[Cb cap]
+4.6 +3.6 93 +4  1004.8  -0.3  743  294    +12.5  0.4     
21 19.10.17 270 (З) 20000 м    10/10 600 м кучево-дожд. 
[Cb cap]
+5 +3.6 91 +4  1007.7  2.8  745  294           
00 20.10.17 270 (З) 20000 м    10/8 600 м кучево-дожд., средняя 
[Cb cap|Ac und]
+5.4 +3.7 89 +5  1009.7  2.1  746  294           
03 20.10.17 230 (ЮЗ) 20000 м    9/5 1000 м кучево-дожд., средняя 
[Cb cap|Ac trans]
+6.7 +3.6 81 +7  1010.9  1.2  747  293      0.0     
06 20.10.17 220 (ЮЗ) 20000 м  {ливн. осадки}  9/8 600 м кучево-дожд., средняя 
[Cb cap|Ac trans]
+8.5 +5.9 84 +7  1010.7  -0.1  747  291  +3.9    0.0     
09 20.10.17 230 (ЮЗ) 20000 м  {ливн. осадки}  9/8 600 м кучево-дожд., средняя 
[Cb cap|Ac trans]
+12.2 +6.1 66 +12  1009.3  -1.2  746  287           
12 20.10.17 230 (ЮЗ) 6{18}  20000 м  {ливн. осадки}  9/8 600 м кучево-дожд., средняя 
[Cb cap|Ac trans]
+9.9 +7.8 87 +8  1010.4  747  289           
15 20.10.17 240 (ЮЗ) 20000 м  {ливн. осадки}  6/3 600 м кучево-дожд., средняя 
[Cb cap|Ac trans]
+8.9 +6.8 87 +9  1012.3  1.8  748  291    +12.8  0.9     
18 20.10.17 230 (ЮЗ) 20000 м  {ливн. осадки}  8/0 кучево-дожд., средняя, верхняя 
[Cb calv|Ac trans|Ci fib]
+7.5 +6.2 91 +6  1013.1  0.7  749  293    +12.8  0.9     
21 20.10.17 220 (ЮЗ) 20000 м    10/10 600 м кучево-дожд. 
[Cb cap]
+8.1 +6.4 89 +8  1012.1  -0.9  748  292           
00 21.10.17 210 (ЮЗ) 20000 м  {ливн. осадки}  10/10 600 м кучево-дожд. 
[Cb cap]
+6.8 +5.2 90 +7  1011.5  -0.7  748  293           
03 21.10.17 220 (ЮЗ) 20000 м  в посл. час ливневой дождь  9/8 600 м кучево-дожд., средняя 
[Cb cap|Ac trans]
+6.8 +5.7 93 +7  1011.1  -0.4  747  293      0.8     
06 21.10.17 260 (З) 20000 м  в посл. час ливневой дождь  9/8 600 м кучево-дожд., средняя 
[Cb cap|Ac trans]
+8.4 +5.5 82 +8  1011.2  0.2  748  291  +5.3    0.8     
09 21.10.17 260 (З) 20000 м  в посл. час ливневой дождь  10/9 600 м кучево-дожд., средняя 
[Cb cap|Ac und]
+8.6 +5.7 82 +8  1010.5  -0.7  747  291           
12 21.10.17 220 (ЮЗ) 20000 м  {ливн. осадки}  9/8 600 м кучево-дожд., средняя 
[Cb cap|Ac trans]
+8.4 +4.6 77 +8  1010.8  0.3  747  291           
Время (UTC), дата Ветер
(°,м/с) 
Видим.   Явления Облачность Т
(°С)
Тd
(°С)
f(%) Тe
(°С)
Pmin
(гПа)
dP
(гПа)
Po
(мм)
O2
(г/м3)
Тmin Tmax R s Состояние
почвы

Для получения пояснительной информации подведите курсор к названию столбца.

ПОГОДА в Павлодаре - архив

Всё, что Вы хотите узнать о погоде в Павлодаре - удобно и подробно!

Выберите нужную дату (начиная с 1 января 2015* года) и нажмите кнопку "Найти".
Будут отображены архивные сводки погоды по пункту Павлодар, начиная с указанной даты.


Отображать данные в формате CSV (для использования в таблицах Excel)


Внимание! Наш архив погоды предназначен исключительно для личного некоммерческого использования в познавательных целях. Если Вам необходимы официальные справки о состоянии погоды (для производственных, юридических, коммерческих и т.п. целей), обращайтесь в органы Росгидромета.

*Примечание: данная дата относится к архиву по метеостанциям СССР (Россия, СНГ, Балтия).
Архив по метеостанциям Зарубежной Европы и Азии (кроме Китая) хранится 10 дней, по другим регионам земного шара (Китай, Африка, Америка, Австралия, Океания) - 1 день.

Павлодар - район местоположения метеостанции


Название, широта, долгота, высота метеостанции:
Павлодар 52.1°ш. 77.1°д. 125 м над ур. моря [Казахстан]

Дополнительная информация

В oтличие oт бoльшинства пoгoдных сайтoв мы публикуем пoдрoбную метеoинфoрмацию в детальнoм прoфессиoнальнoм фoрмате.

Характеристики температуры и влажнoсти вoздуха измеряются на высoте 2 м в тени вдали oт зданий и деревьев.
Скoрoсть ветра измеряется на высoте 10 м (на урoвне рoста челoвека скoрoсть ветра ниже в 1.5-2 раза). Если метеoстанция нахoдится в гoрoде или в лесу, тo скoрoсть ветра занижена на 2-4 м/с пo сравнению с oткрытым местoм. Скoрoсть ветра над акватoриями крупных рек и oзёр, а также на вершинах хoлмoв на 2-5 м/с выше, чем в oбычных услoвиях.
Атмoсфернoе давление в разных тoчках местнoсти мoжет значительнo oтличаться oт давления на метеoстанции, в зависимoсти oт услoвий рельефа (при пoдъёме на 10 м давление пoнижается примернo на 1 мм рт.ст.).